Location: Voyageurs National Park
(48.5020°N, 92.9292°W)
Time: 14:52:01
(UTC-05:00)

ATLAS 3B R/B - Pass Details

Date: 19 January 2018
Orbit: 1014 x 1181 km, 63.8° (Epoch: 21 May)

Event Time Altitude Azimuth Distance (km) Brightness Sun altitude
Exits shadow 05:13:15 22° 340° (NNW) 2,161 4.1 -26.4°
Maximum altitude 05:14:16 23° 352° (N) 2,119 4.1 -26.2°
Drops below altitude 10° 05:19:28 10° 43° (NE) 2,866 5.4 -25.4°
Sets 05:22:44 0° 58° (ENE) 3,797 6.4 -24.8°
